Location: Briarstone Lake
(43.1454°N, 93.2359°W)
Time: 06:47:44
(UTC+00:00)

BlueWalker 3 - Pass Details

Date: 02 February 2026
Orbit: 450 x 461 km, 53.2° (Epoch: 11 February)

Event Time Altitude Azimuth Distance (km) Brightness Sun altitude
Rises 01:10:47 0° 308° (NW) 2,459 6.2 -19.4°
Reaches altitude 10° 01:13:16 10° 324° (NW) 1,585 4.9 -19.8°
Enters shadow 01:15:28 21° 1° (N) 1,073 3.5 -20.2°
